Weather History for Greenville/Spartanburg, SC

Change the Weather History Date:

Sunday, April 13, 2014

  Actual Average Record
Temperature  
Mean Temperature 67 °F 60 °F  
Max Temperature 80 °F 72 °F 86 °F (1981)
Min Temperature 54 °F 48 °F 29 °F (1940)
Degree Days  
Heating Degree Days 0 6  
Month to date heating degree days 50 96  
Since 1 July heating degree days 3086 2929  
Cooling Degree Days 2 1  
Month to date cooling degree days 19 13  
Year to date cooling degree days 19 21  
Growing Degree Days 17 (Base 50)    
Moisture  
Dew Point 53 °F    
Average Humidity 64    
Maximum Humidity 89    
Minimum Humidity 39    
Precipitation  
Precipitation 0.00 in 0.11 in 3.05 in (1979)
Month to date precipitation 2.57 1.49  
Year to date precipitation 12.90 13.80  
Snow  
Snow 0.00 in 0.00 in 0.00 in ()
Month to date snowfall 0.0 0.0  
Since 1 July snowfall 7.2 4.7  
Snow Depth 0.00 in    
Sea Level Pressure  
Sea Level Pressure 30.10 in    
Wind  
Wind Speed 9 mph (SSW)    
Max Wind Speed 17 mph    
Max Gust Speed 23 mph    
Visibility 10 miles    
Events      
T = Trace of Precipitation, MM = Missing Value Source: NWS Daily Summary

Daily Weather History Graph

Daily Weather History Graph

Search for Another Location

Airport:

Trip Planner

Search our weather history database for the weather conditions in past years. The results will help you decide how hot, cold, wet, or windy it might be!

Date:

Astronomy

Apr. 13, 2014 Rise Set
Actual Time 6:59 AM EDT 7:59 PM EDT
Civil Twilight 6:33 AM EDT 8:25 PM EDT
Nautical Twilight 6:03 AM EDT 8:56 PM EDT
Astronomical Twilight 5:31 AM EDT 9:28 PM EDT
Moon 6:39 PM EDT (4/13) 5:53 AM EDT (4/13)
Length of Visible Light 13h 51m
Length of Day
13h 00m
Waxing Gibbous, 97% of the Moon is Illuminated
Apr 13
Waxing Gibbous
Apr 15
Full
Apr 22
Last Quarter
Apr 29
New
May 6
First Quarter

Hourly Weather History & Observations

Time (EDT) Temp. Heat Index Dew Point Humidity Pressure Visibility Wind Dir Wind Speed Gust Speed Precip Events Conditions
12:53 AM 61.0 °F - 50.0 °F 67% 30.11 in 10.0 mi South 6.9 mph - N/A   Clear
1:53 AM 61.0 °F - 51.1 °F 70% 30.10 in 10.0 mi SW 6.9 mph - N/A   Clear
2:53 AM 59.0 °F - 51.1 °F 75% 30.11 in 10.0 mi South 6.9 mph - N/A   Clear
3:53 AM 60.1 °F - 51.1 °F 72% 30.11 in 10.0 mi SW 6.9 mph - N/A   Clear
4:53 AM 59.0 °F - 51.1 °F 75% 30.11 in 10.0 mi SW 8.1 mph - N/A   Clear
5:53 AM 55.9 °F - 51.1 °F 84% 30.12 in 10.0 mi SW 6.9 mph - N/A   Clear
6:53 AM 54.0 °F - 50.0 °F 86% 30.14 in 10.0 mi SW 4.6 mph - N/A   Clear
7:53 AM 55.0 °F - 51.1 °F 86% 30.15 in 10.0 mi South 4.6 mph - N/A   Clear
8:53 AM 63.0 °F - 53.1 °F 70% 30.15 in 10.0 mi SSW 6.9 mph - N/A   Clear
9:53 AM 66.9 °F - 54.0 °F 63% 30.17 in 10.0 mi SSW 13.8 mph - N/A   Clear
10:53 AM 69.1 °F - 54.0 °F 58% 30.17 in 10.0 mi SW 12.7 mph - N/A   Clear
11:53 AM 73.9 °F - 57.0 °F 55% 30.16 in 10.0 mi SSW 11.5 mph - N/A   Mostly Cloudy
12:53 PM 75.9 °F - 57.0 °F 52% 30.13 in 10.0 mi SSW 9.2 mph 21.9 mph N/A   Clear
1:53 PM 75.9 °F - 54.0 °F 46% 30.11 in 10.0 mi SSW 13.8 mph - N/A   Mostly Cloudy
2:53 PM 80.1 °F 80.0 °F 54.0 °F 40% 30.08 in 10.0 mi SSW 12.7 mph - N/A   Mostly Cloudy
3:53 PM 80.1 °F 80.0 °F 54.0 °F 40% 30.06 in 10.0 mi South 16.1 mph 20.7 mph N/A   Mostly Cloudy
4:53 PM 78.1 °F - 52.0 °F 40% 30.06 in 10.0 mi SSW 12.7 mph - N/A   Mostly Cloudy
5:53 PM 78.1 °F - 53.1 °F 42% 30.04 in 10.0 mi South 11.5 mph - N/A   Mostly Cloudy
6:53 PM 75.9 °F - 52.0 °F 43% 30.04 in 10.0 mi South 10.4 mph - N/A   Clear
7:53 PM 71.6 °F - 53.6 °F 53% 30.05 in 10.0 mi SSE 6.9 mph - N/A   Mostly Cloudy
8:53 PM 69.1 °F - 55.0 °F 61% 30.04 in 10.0 mi South 4.6 mph - N/A   Overcast
9:53 PM 68.0 °F - 55.9 °F 65% 30.05 in 10.0 mi South 6.9 mph - N/A   Overcast
10:53 PM 64.9 °F - 55.9 °F 73% 30.04 in 10.0 mi SSE 6.9 mph - N/A   Partly Cloudy
11:53 PM 66.0 °F - 55.0 °F 68% 30.03 in 10.0 mi South 11.5 mph - N/A   Clear